EN

Hourly Weather Lachmirowice

Today, 25 July, Sunday

Time Temperature Precipitation Wind Pressure Humidity
00:00 +19°C° 0 mm 3 mps 753 mmHg 74%
01:00 +18°C° 0 mm 3 mps 753 mmHg 75%
02:00 +18°C° 0 mm 3 mps 752 mmHg 75%
03:00 +18°C° 0 mm 3 mps 752 mmHg 74%
04:00 +18°C° 0 mm 3 mps 752 mmHg 74%
05:00 +20°C° 0 mm 3 mps 752 mmHg 72%
06:00 +21°C° 0 mm 3 mps 752 mmHg 69%
07:00 +22°C° 0 mm 4 mps 752 mmHg 66%
08:00 +23°C° 0 mm 4 mps 752 mmHg 63%
09:00 +26°C° 0 mm 4 mps 752 mmHg 59%
10:00 +27°C° 0 mm 4 mps 752 mmHg 56%
11:00 +28°C° 0 mm 4 mps 752 mmHg 53%
12:00 +28°C° 0 mm 4 mps 752 mmHg 50%
13:00 +29°C° 0 mm 4 mps 752 mmHg 47%
14:00 +28°C° 0.1 mm 4 mps 752 mmHg 53%
15:00 +27°C° 0.1 mm 4 mps 752 mmHg 59%
16:00 +25°C° 0.1 mm 3 mps 752 mmHg 65%
17:00 +25°C° 0.1 mm 3 mps 752 mmHg 66%
18:00 +24°C° 0.1 mm 2 mps 752 mmHg 68%
19:00 +24°C° 0.1 mm 1 mps 751 mmHg 69%
20:00 +23°C° 0 mm 2 mps 751 mmHg 73%
21:00 +21°C° 0 mm 2 mps 752 mmHg 78%
22:00 +20°C° 0 mm 2 mps 752 mmHg 82%
23:00 +19°C° 0 mm 3 mps 752 mmHg 84%

Tomorrow, 26 July, Monday

Time Temperature Precipitation Wind Pressure Humidity
00:00 +19°C° 0 mm 3 mps 752 mmHg 85%
01:00 +18°C° 0 mm 3 mps 752 mmHg 86%
02:00 +19°C° 0 mm 3 mps 751 mmHg 85%
03:00 +19°C° 0 mm 4 mps 751 mmHg 85%
04:00 +19°C° 0 mm 4 mps 751 mmHg 84%
05:00 +20°C° 0 mm 4 mps 751 mmHg 80%
06:00 +21°C° 0 mm 4 mps 751 mmHg 75%
07:00 +22°C° 0 mm 4 mps 751 mmHg 71%
08:00 +25°C° 0 mm 3 mps 751 mmHg 66%
09:00 +26°C° 0 mm 3 mps 751 mmHg 61%
10:00 +28°C° 0 mm 3 mps 751 mmHg 56%
11:00 +29°C° 0 mm 2 mps 751 mmHg 53%
12:00 +29°C° 0 mm 2 mps 751 mmHg 50%
13:00 +30°C° 0 mm 2 mps 751 mmHg 47%
14:00 +30°C° 0 mm 2 mps 750 mmHg 49%
15:00 +30°C° 0 mm 2 mps 750 mmHg 50%
16:00 +30°C° 0 mm 2 mps 750 mmHg 51%
17:00 +28°C° 0.1 mm 2 mps 750 mmHg 58%
18:00 +27°C° 0.1 mm 2 mps 750 mmHg 65%
19:00 +25°C° 0.1 mm 2 mps 750 mmHg 71%
20:00 +24°C° 0.3 mm 2 mps 750 mmHg 75%
21:00 +23°C° 0.3 mm 2 mps 750 mmHg 80%
22:00 +21°C° 0.3 mm 2 mps 751 mmHg 84%
23:00 +20°C° 0 mm 2 mps 751 mmHg 85%

Day after tomorrow, 27 July, Tuesday

Time Temperature Precipitation Wind Pressure Humidity
00:00 +20°C° 0 mm 2 mps 751 mmHg 86%
01:00 +20°C° 0 mm 2 mps 751 mmHg 86%
02:00 +20°C° 0 mm 2 mps 750 mmHg 85%
03:00 +20°C° 0 mm 2 mps 750 mmHg 84%
04:00 +21°C° 0 mm 1 mps 750 mmHg 83%
05:00 +21°C° 0.1 mm 1 mps 750 mmHg 82%
06:00 +21°C° 0.1 mm 2 mps 751 mmHg 80%
07:00 +23°C° 0.1 mm 2 mps 751 mmHg 79%
08:00 +24°C° 0.1 mm 3 mps 751 mmHg 74%
09:00 +26°C° 0.1 mm 3 mps 751 mmHg 68%
10:00 +27°C° 0.1 mm 4 mps 751 mmHg 63%
11:00 +27°C° 0.1 mm 4 mps 751 mmHg 64%
12:00 +26°C° 0.1 mm 4 mps 752 mmHg 65%
13:00 +26°C° 0.1 mm 4 mps 752 mmHg 66%
14:00 +27°C° 0 mm 3 mps 752 mmHg 61%
15:00 +28°C° 0 mm 3 mps 752 mmHg 55%
16:00 +29°C° 0 mm 3 mps 752 mmHg 50%
17:00 +28°C° 0 mm 3 mps 751 mmHg 54%
18:00 +27°C° 0 mm 2 mps 751 mmHg 59%
19:00 +26°C° 0 mm 2 mps 751 mmHg 63%
20:00 +25°C° 0 mm 2 mps 751 mmHg 64%
21:00 +24°C° 0 mm 2 mps 752 mmHg 64%
22:00 +24°C° 0 mm 2 mps 752 mmHg 64%
23:00 +23°C° 0 mm 2 mps 752 mmHg 65%

28 July, Wednesday

Time Temperature Precipitation Wind Pressure Humidity
00:00 +23°C° 0 mm 2 mps 752 mmHg 66%
01:00 +21°C° 0 mm 2 mps 752 mmHg 67%
02:00 +21°C° 0 mm 2 mps 752 mmHg 68%
03:00 +20°C° 0 mm 3 mps 752 mmHg 68%
04:00 +20°C° 0 mm 3 mps 752 mmHg 69%
05:00 +21°C° 0 mm 3 mps 752 mmHg 67%
06:00 +22°C° 0 mm 3 mps 752 mmHg 64%
07:00 +24°C° 0 mm 3 mps 752 mmHg 62%
08:00 +26°C° 0 mm 3 mps 752 mmHg 57%
09:00 +27°C° 0 mm 3 mps 752 mmHg 51%
10:00 +29°C° 0 mm 4 mps 752 mmHg 46%
11:00 +29°C° 0 mm 4 mps 752 mmHg 44%
12:00 +30°C° 0 mm 4 mps 752 mmHg 42%
13:00 +30°C° 0 mm 5 mps 752 mmHg 40%
14:00 +30°C° 0 mm 4 mps 752 mmHg 42%
15:00 +29°C° 0 mm 4 mps 752 mmHg 45%
16:00 +29°C° 0 mm 3 mps 752 mmHg 48%
17:00 +27°C° 0.3 mm 3 mps 752 mmHg 55%
18:00 +25°C° 0.3 mm 4 mps 752 mmHg 63%
19:00 +22°C° 0.3 mm 4 mps 752 mmHg 71%
20:00 +21°C° 0.3 mm 3 mps 752 mmHg 75%
21:00 +20°C° 0.3 mm 2 mps 752 mmHg 79%
22:00 +20°C° 0.3 mm 2 mps 752 mmHg 82%
23:00 +19°C° 0 mm 2 mps 752 mmHg 85%

29 July, Thursday

Time Temperature Precipitation Wind Pressure Humidity
00:00 +19°C° 0 mm 3 mps 752 mmHg 87%
01:00 +18°C° 0 mm 3 mps 753 mmHg 90%
02:00 +18°C° 0 mm 3 mps 753 mmHg 92%
03:00 +17°C° 0 mm 3 mps 753 mmHg 93%
04:00 +16°C° 0 mm 2 mps 753 mmHg 95%
05:00 +17°C° 0 mm 3 mps 753 mmHg 89%
06:00 +18°C° 0 mm 3 mps 753 mmHg 83%
07:00 +20°C° 0 mm 3 mps 753 mmHg 78%
08:00 +21°C° 0 mm 3 mps 753 mmHg 71%
09:00 +23°C° 0 mm 4 mps 753 mmHg 64%
10:00 +26°C° 0 mm 4 mps 753 mmHg 57%
11:00 +27°C° 0 mm 4 mps 752 mmHg 52%
12:00 +28°C° 0 mm 4 mps 752 mmHg 48%
13:00 +29°C° 0 mm 4 mps 752 mmHg 43%
14:00 +28°C° 0 mm 4 mps 751 mmHg 47%
15:00 +27°C° 0 mm 3 mps 751 mmHg 50%
16:00 +27°C° 0 mm 2 mps 751 mmHg 53%
17:00 +26°C° 0 mm 2 mps 751 mmHg 55%
18:00 +26°C° 0 mm 2 mps 751 mmHg 56%
19:00 +25°C° 0 mm 1 mps 750 mmHg 57%
20:00 +24°C° 0 mm 1 mps 750 mmHg 59%
21:00 +23°C° 0 mm 1 mps 750 mmHg 61%
22:00 +23°C° 0 mm 1 mps 750 mmHg 63%
23:00 +22°C° 0 mm 1 mps 749 mmHg 65%

30 July, Friday

Time Temperature Precipitation Wind Pressure Humidity
00:00 +21°C° 0 mm 2 mps 749 mmHg 66%
01:00 +20°C° 0 mm 2 mps 749 mmHg 68%
02:00 +20°C° 0.1 mm 2 mps 749 mmHg 70%
03:00 +20°C° 0.1 mm 3 mps 749 mmHg 73%
04:00 +20°C° 0.1 mm 3 mps 748 mmHg 76%
05:00 +20°C° 0.5 mm 4 mps 748 mmHg 78%
06:00 +21°C° 0.5 mm 4 mps 748 mmHg 79%
07:00 +22°C° 0.5 mm 5 mps 748 mmHg 81%
08:00 +23°C° 0 mm 5 mps 748 mmHg 77%
09:00 +25°C° 0 mm 5 mps 748 mmHg 73%
10:00 +26°C° 0 mm 6 mps 748 mmHg 68%
11:00 +26°C° 0 mm 5 mps 748 mmHg 65%
12:00 +26°C° 0 mm 5 mps 748 mmHg 62%
13:00 +27°C° 0 mm 5 mps 747 mmHg 58%
14:00 +27°C° 0.1 mm 5 mps 747 mmHg 57%
15:00 +27°C° 0.1 mm 5 mps 747 mmHg 56%
16:00 +27°C° 0.1 mm 5 mps 747 mmHg 55%
17:00 +26°C° 0 mm 4 mps 747 mmHg 57%
18:00 +25°C° 0 mm 3 mps 747 mmHg 58%
19:00 +24°C° 0 mm 3 mps 747 mmHg 59%
20:00 +22°C° 0 mm 3 mps 747 mmHg 59%
21:00 +21°C° 0 mm 3 mps 747 mmHg 59%
22:00 +21°C° 0 mm 4 mps 747 mmHg 59%
23:00 +20°C° 0 mm 4 mps 747 mmHg 62%
Show more